Terminal Aerodrome Forecast
Issued by NWS Grand Forks, ND

Home | Current Version | Previous Version | Graphics & Text | Print | Product List | Glossary On
Versions: 1 2 3 4 5 6 7 8 9 10 11 12 13 14 15 16 17 18
000
FTUS43 KFGF 282300
TAFGFK
TAF
KGFK 282339Z 0100/0124 21012KT P6SM BKN035
     FM010300 26011KT P6SM SCT120
     FM011200 22010KT P6SM BKN100
     FM011500 27009KT 5SM -SN BKN025=

USA.gov is the U.S. government's official web portal to all federal, state and local government web resources and services.